Skip Page Navigation
NASA JPL Caltech
NASA Logo - Jet Propulsion Laboratory + View the NASA Portal
+ Near-Earth Object (NEO) Program
Search JPL
JPL Home Earth Solar System Stars & Galaxies Technology
JPL Solar System Dynamics
BODIES ORBITS EPHEMERIDES TOOLS PHYSICAL DATA DISCOVERY FAQ SITE MAP
JPL Small-Body Database Browser
Search: [ help ]  
16037 Sheehan (1999 GX8)
Classification: Outer Main-belt Asteroid          SPK-ID: 2016037
Ephemeris | Orbit Diagram | Orbital Elements | Physical Parameters | Discovery Circumstances ]

[ hide orbit diagram ]
Orbit Diagram
Note: Make sure you have Java enabled on your browser to see the applet. This applet is provided as a 3D orbit visualization tool. The applet was implemented using 2-body methods, and hence should not be used for determining accurate long-term trajectories (over several years or decades) or planetary encounter circumstances. For accurate long-term ephemerides, please instead use our Horizons system.
Orbit Viewer

Additional Notes: the orbits shown in the applet are color coded. The planets are white lines, and the asteroid/comet is a blue line. The bright white line indicates the portion of the orbit that is above the ecliptic plane, and the darker portion is below the ecliptic plane. Likewise for the asteroid/comet orbit, the light blue indicates the portion above the ecliptic plane, and the dark blue the portion below the ecliptic plane.

Orbit Viewer applet originally written and kindly provided by Osamu Ajiki (AstroArts), and further modified by Ron Baalke (JPL).


Orbital Elements at Epoch 2456400.5 (2013-Apr-18.0) TDB
Reference: MPO250370 (heliocentric ecliptic J2000)
 Element Value Uncertainty (1-sigma)   Units 
e 0.0544967 n/a  
a 3.2213848 n/a AU
q 3.0458300 n/a AU
i 15.27298 n/a deg
node 187.41025 n/a deg
peri 98.13184 n/a deg
M 84.48780 n/a deg
tp 2455904.8742793
(2011-Dec-09.37427930)
n/a JED
period 2111.8464378
5.78
n/a
n/a
d
yr
n 0.17046694 n/a deg/d
Q 3.3969396 n/a AU
  Orbit Determination Parameters
   # obs. used (total)      779  
   first obs. used      1982-??-??  
   last obs. used      2012-12-13  
   # oppositions      15  
   planetary ephem.      DE403  
   condition code      0  
   fit RMS      0.57  
   data source      MPC:mpn  
   producer      MPCLINUX  

Additional Information
 T_jup = 3.131 

Ephemeris | Orbit Diagram | Orbital Elements | Physical Parameters | Discovery Circumstances ]

Physical Parameter Table
Parameter Symbol Value Units Sigma Reference Notes
absolute magnitude H 13.30 mag n/a IRAS-A-FPA-3-RDR-IMPS-V6.0 IRAS observations used: 2
diameter diameter 15.81 km 1.5 IRAS-A-FPA-3-RDR-IMPS-V6.0 IRAS observations used: 2
geometric albedo albedo 0.0338   0.007 IRAS-A-FPA-3-RDR-IMPS-V6.0 IRAS observations used: 2

16037 Sheehan           Discovered 1999 Apr. 10 by the Lowell Observatory Near-Earth Object Search at the Anderson Mesa Station.
Astronomy historian and psychiatrist William Patrick Sheehan (b. 1954) is a prolific author and the biographer of E. E. Barnard. He has traced the development of early studies of the moon and planets and of the Milky Way, and he has solved several long-standing puzzles in the history of astronomy.
NOTE: some special characters may not display properly (any characters within {} are an attempt to place the proper accent above a character)
Reference: 20040928/MPCPages.arcLast Updated: 2004-09-28

Alternate Designations
 1999 GX8 = 1982 KS1 
Ephemeris | Orbit Diagram | Orbital Elements | Physical Parameters | Discovery Circumstances ]
ABOUT SSD CREDITS/AWARDS PRIVACY/COPYRIGHT GLOSSARY LINKS
FirstGov 2013-May-21 05:11 UT
(server date/time)  
NASA Home Page
Site Manager:   Donald K. Yeomans
Webmaster  Alan B. Chamberlin